Flag for France Weather past 2 weeks in Royan, France

48 °F


Feels Like: 46 °F
Forecast: 50 / 55 °F
Wind: 6 mph from West

Location: Cognac Airport

Current Time: Nov 25, 2015 at 8:16:48 AM

Latest Report: Nov 25, 2015 at 7:30 AM

Visibility: 6 mi

Pressure: 30.04 "Hg

Humidity: 100%

Dew point: 48 °F

Location of RoyanLocation

Historic Weather in Royan — Graph


Royan temperature yesterday

Maximum temperature yesterday: 46 °F (at 11:30 PM)
Minimum temperature yesterday: 27 °F (at 1:00 AM)
Average temperature yesterday: 36 °F

Past Weeks' High & Low Weather Summary

High68 °F (Nov 12, 2:30 PM)100% (Nov 10, 6:30 AM)30.57 "Hg (Nov 10, 6:30 AM)
Low27 °F (Nov 24, 1:00 AM)46% (Nov 22, 3:00 PM)29.77 "Hg (Nov 21, 4:00 AM)
Average51 °F88%30.24 "Hg
* Reported Nov 10 6:00 AM — Nov 25 6:30 AM, Royan, Weather by CustomWeather, © 2015

Note: Actual official high and low records may vary slightly from our data, if they occured in-between our weather recording intervals... More about our weather records


Royan weather history for previous 24 hours

Time TempWeatherWind HumidityBarometerVisibility
6:30 AM
Wed, Nov 25
48 °FPartly cloudy.5 mph100%30.04 "HgN/A
6:00 AM48 °FMostly cloudy.5 mph94%30.04 "HgN/A
5:30 AM46 °FPartly cloudy.2 mph100%30.04 "HgN/A
5:00 AM46 °FFog.1 mph100%30.04 "Hg3 mi
4:30 AM46 °FFog.2 mph100%30.04 "Hg2 mi
4:00 AM46 °FPartly cloudy.2 mph100%30.04 "Hg4 mi
3:30 AM46 °FPartly cloudy.No wind100%30.04 "Hg4 mi
3:00 AM46 °FPartly cloudy.5 mph93%30.04 "Hg5 mi
2:30 AM46 °FPassing clouds.5 mph100%30.07 "Hg5 mi
2:00 AM46 °FPartly cloudy.3 mph100%30.07 "Hg6 mi
1:00 AM46 °FPartly cloudy.6 mph100%30.09 "HgN/A
12:30 AM46 °FMostly cloudy.6 mph93%30.07 "HgN/A
12:00 AM46 °FMostly cloudy.6 mph93%30.09 "HgN/A
11:30 PM
Tue, Nov 24
46 °FPartly cloudy.5 mph93%30.09 "HgN/A
11:00 PM45 °FOvercast.5 mph100%30.09 "HgN/A
10:30 PM45 °FLight rain. Partly cloudy.3 mph100%30.09 "Hg6 mi
10:00 PM45 °FLight rain. Clear.3 mph100%30.12 "Hg4 mi
9:30 PM45 °FMostly cloudy.No wind100%30.12 "HgN/A
9:00 PM45 °FMostly cloudy.3 mph93%30.12 "HgN/A
8:30 PM45 °FPassing clouds.3 mph93%30.12 "HgN/A
8:00 PM45 °FLow clouds.5 mph93%30.12 "HgN/A
7:30 PM45 °FMostly cloudy.6 mph93%30.09 "HgN/A
7:00 PM45 °FDrizzle. Mostly cloudy.13 mph93%30.12 "Hg5 mi
6:30 PM45 °FMostly cloudy.18 mph93%30.12 "HgN/A
6:00 PM45 °FPassing clouds.18 mph93%30.09 "Hg6 mi
5:30 PM45 °FMostly cloudy.17 mph87%30.09 "HgN/A
5:00 PM45 °FDrizzle. Overcast.14 mph87%30.12 "HgN/A
4:30 PM45 °FOvercast.14 mph81%30.15 "HgN/A
4:00 PM43 °FOvercast.14 mph87%30.15 "HgN/A
3:30 PM43 °FMostly cloudy.14 mph87%30.18 "HgN/A
3:00 PM43 °FLight rain. Mostly cloudy.15 mph81%30.18 "HgN/A
2:30 PM43 °FMostly cloudy.16 mph87%30.21 "HgN/A
2:00 PM41 °FCloudy.15 mph87%30.21 "HgN/A
1:30 PM41 °FLight rain. Overcast.13 mph87%30.24 "HgN/A
1:00 PM41 °FDrizzle. Mostly cloudy.8 mph87%30.27 "HgN/A
12:30 PM39 °FDrizzle. Mostly cloudy.10 mph87%30.27 "HgN/A
12:00 PM39 °FDrizzle. Overcast.12 mph87%30.30 "HgN/A
11:30 AM37 °FMostly cloudy.9 mph93%30.30 "HgN/A
11:00 AM37 °FPassing clouds.7 mph93%30.33 "HgN/A
10:30 AM36 °FChilly.6 mph100%30.30 "HgN/A
10:00 AM34 °FSunny.5 mph100%30.30 "Hg10 mi
9:30 AM32 °FClear.No wind100%30.30 "Hg5 mi
9:00 AM30 °FClear.No wind93%30.33 "Hg4 mi
8:30 AM28 °FClear.No wind100%30.33 "Hg4 mi
8:00 AM28 °FClear.No wind100%30.33 "Hg5 mi
Weather by CustomWeather, © 2015

See weather overviewHow to use our weather pages